This is the latest recevied weather packets stored in our database for station/object WX7FGZ-6. If no packets are shown the sender has not sent any weather packets the latest 10 day(s).
| Time | Temp. | Humidity | Pressure | Rain* | Wind** | Luminosity | Snow |
|---|---|---|---|---|---|---|---|
| 1777668624 | 3.33° C | 44% | 1020.8 hPa | 0 mm | - | - | - |
| 1777668324 | 3.33° C | 43% | 1020.7 hPa | 0 mm | - | - | - |
| 1777668024 | 3.89° C | 44% | 1020.8 hPa | 0 mm | - | - | - |
| 1777667724 | 3.89° C | 42% | 1020.8 hPa | 0 mm | - | - | - |
| 1777667690 | 3.89° C | 41% | 1020.6 hPa | 0 mm | - | - | - |
| 1777667424 | 3.89° C | 41% | 1020.6 hPa | 0 mm | - | - | - |
| 1777667124 | 3.33° C | 44% | 1020.9 hPa | 0 mm | - | - | - |
| 1777666824 | 3.33° C | 47% | 1020.8 hPa | 0 mm | - | - | - |
| 1777666524 | 3.33° C | 44% | 1020.7 hPa | 0 mm | - | - | - |
| 1777666224 | 3.33° C | 47% | 1020.6 hPa | 0 mm | - | - | - |
| 1777665924 | 2.78° C | 47% | 1020.6 hPa | 0 mm | - | - | - |
| 1777665624 | 3.33° C | 43% | 1020.5 hPa | 0 mm | - | - | - |
| 1777665324 | 4.44° C | 42% | 1020.4 hPa | 0 mm | - | - | - |
| 1777665024 | 4.44° C | 40% | 1020.5 hPa | 0 mm | - | - | - |
| 1777664724 | 3.89° C | 43% | 1020.4 hPa | 0 mm | - | - | - |
| 1777664424 | 3.89° C | 43% | 1020.4 hPa | 0 mm | - | - | - |
| 1777664124 | 3.33° C | 44% | 1020.6 hPa | 0 mm | - | - | - |
| 1777663824 | 3.33° C | 44% | 1020.5 hPa | 0 mm | - | - | - |
| 1777663524 | 3.89° C | 41% | 1020.4 hPa | 0 mm | - | - | - |
| 1777663207 | 3.89° C | 43% | 1020.4 hPa | 0 mm | - | - | - |
| 1777662907 | 3.89° C | 46% | 1020.4 hPa | 0 mm | - | - | - |
| 1777662607 | 3.33° C | 48% | 1020.3 hPa | 0 mm | - | - | - |
| 1777662307 | 2.78° C | 50% | 1020.3 hPa | 0 mm | - | - | - |
| 1777662298 | 2.22° C | 48% | 1020.3 hPa | 0 mm | - | - | - |
| 1777662007 | 2.22° C | 48% | 1020.3 hPa | 0 mm | - | - | - |
* Rain latest hour (hover to see other rain measurements)
** Current wind speed in m/s (hover to see current wind gust speed)